Wind_Speed
65 68 71 74 76 78 80 80 79 77 74 71 68 64 62 60 59 60 64 68 73 78 82 84 84 82 79 78 76 75 74 73 72 71 70 68 67 65 63 62 62 61 60
70 72 74 76 78 78 78 76 72 68 64 61 57 54 52 49 48 48 49 53 58 65 73 80 83 85 84 81 80 78 77 76 75 74 73 72 71 69 68 66 65 64 63
73 75 76 78 78 76 73 69 63 59 56 53 51 49 47 46 45 45 44 44 46 50 56 65 74 81 85 85 84 82 81 79 78 77 77 76 75 73 72 70 69 68 67
75 76 77 76 74 71 66 60 56 53 52 51 49 47 46 44 43 42 41 41 41 42 44 49 57 67 76 82 85 86 85 83 81 80 80 79 78 78 76 74 73 72 70
75 76 76 74 70 65 59 55 52 52 51 50 49 48 47 45 43 41 40 39 38 38 38 40 44 51 60 70 77 83 86 86 85 84 83 83 82 81 80 78 77 75 74
75 75 74 70 66 60 55 53 52 53 53 52 51 51 49 47 45 43 41 38 37 35 35 35 36 39 45 54 63 71 78 84 86 86 86 85 85 84 83 82 80 79 78
75 74 70 66 61 57 54 54 55 55 55 55 54 53 51 49 47 44 42 39 36 35 34 33 33 34 36 41 48 57 64 72 79 84 85 86 87 87 86 86 85 84 82
74 71 67 63 59 57 56 57 58 58 58 57 56 54 52 51 49 47 44 41 38 36 34 33 32 33 33 35 38 43 50 57 65 72 78 82 84 87 88 88 88 87 86
71 68 65 61 59 59 59 60 60 59 58 57 55 53 52 50 49 48 46 44 42 38 36 34 33 33 33 34 35 37 40 44 50 57 64 71 76 81 84 87 88 89 88
68 66 63 62 62 62 62 61 60 59 57 55 53 51 49 48 46 45 45 44 43 41 39 37 35 34 34 34 35 36 37 39 42 46 51 56 62 69 75 80 84 88 89
66 64 64 64 63 63 62 60 59 56 53 51 49 48 46 45 44 43 42 42 42 42 41 40 38 37 37 36 36 36 37 38 39 40 43 46 50 55 62 68 74 80 84
65 65 65 64 63 62 61 58 55 52 50 49 48 47 47 46 45 44 43 42 41 41 41 41 41 40 40 39 39 38 38 39 39 39 40 42 44 46 50 56 63 69 75
65 65 64 63 62 61 58 55 52 50 49 48 48 47 47 46 45 44 43 42 41 40 40 40 41 42 42 42 42 41 41 40 40 40 40 41 42 43 45 48 52 58 64
65 65 64 62 60 57 54 52 50 49 49 48 48 48 47 46 45 43 42 41 40 39 39 39 40 41 43 44 45 44 43 43 43 42 41 41 42 42 43 44 46 51 55
65 64 62 59 57 53 51 50 50 50 50 50 49 48 48 47 46 44 42 41 39 38 37 37 38 39 41 44 46 46 45 45 45 44 44 43 42 42 41 42 43 45 49
64 62 59 56 53 51 50 50 51 51 51 51 50 49 49 48 46 43 42 40 39 38 37 35 35 36 38 41 45 47 46 46 46 46 46 44 43 43 42 41 42 43 45
62 59 56 53 51 50 51 51 52 52 52 52 51 49 48 47 45 44 43 41 40 38 37 35 34 34 35 38 41 45 46 46 46 47 47 46 45 44 43 41 42 43 42
60 56 52 50 50 50 51 53 53 53 53 52 51 50 48 47 47 47 46 44 43 41 39 37 35 34 34 35 38 42 43 45 46 46 47 47 46 45 44 43 43 43 43
57 53 50 49 50 51 52 53 54 55 54 53 52 50 49 49 50 50 49 47 46 45 44 40 36 33 33 33 35 38 40 42 44 46 47 47 47 47 45 45 44 45 46
53 51 49 49 50 51 53 54 55 55 54 53 53 52 52 53 54 53 53 51 50 48 45 40 36 32 31 31 33 35 37 39 41 44 46 47 47 47 47 46 45 46 48
51 49 49 49 50 51 53 55 56 56 55 54 54 53 54 56 57 57 56 55 53 50 44 37 32 29 28 28 30 33 34 35 38 41 44 47 48 48 48 47 47 46 46
49 48 48 49 50 52 54 55 56 56 56 55 55 55 56 58 59 60 59 57 55 49 40 31 27 25 25 25 27 29 31 31 34 38 42 46 48 49 49 49 48 47 47
48 47 47 48 50 52 54 55 56 56 56 56 56 56 57 58 61 63 61 59 55 46 35 26 21 20 21 22 24 26 27 28 31 36 40 44 47 48 49 49 49 49 48
46 46 46 47 49 51 53 55 56 57 57 57 57 57 57 59 62 64 64 61 56 46 34 23 15 14 16 19 20 22 23 25 28 33 38 42 44 47 48 50 50 50 50
46 46 46 46 48 50 52 54 56 57 57 57 57 58 58 60 62 65 66 63 59 51 37 25 14 9 11 15 16 18 19 21 24 28 34 39 42 45 47 49 50 51 51
45 45 45 45 47 49 51 53 56 57 57 57 57 58 59 60 62 64 66 65 61 55 42 29 18 9 7 10 12 14 15 16 19 23 28 34 39 42 45 48 50 51 51
Wind_Direction
314 314 313 312 311 311 309 308 306 305 305 304 304 303 301 298 293 287 280 274 267 262 258 255 253 251 250 248 246 245 243 242 242 241 240 240 240 239 238 237 236 236 234
316 316 315 314 313 312 311 309 308 308 309 309 310 309 308 306 303 298 291 283 274 266 260 255 252 250 249 247 245 244 242 241 241 240 238 238 238 238 237 237 236 236 235
318 317 316 315 315 313 311 310 311 311 312 313 312 312 311 310 307 304 300 294 286 276 267 260 254 250 247 246 245 243 242 240 239 239 238 237 236 236 236 236 236 236 236
320 319 318 317 316 314 313 313 313 313 313 313 312 311 310 309 307 305 302 298 293 286 277 268 260 253 248 246 244 243 242 241 239 239 239 238 237 236 236 236 235 235 235
322 321 320 319 317 316 316 315 314 314 313 312 311 309 308 307 306 304 303 301 296 291 284 276 267 258 251 247 244 243 242 241 240 239 239 239 238 237 236 235 235 235 235
324 323 322 320 319 318 317 316 315 314 312 311 309 308 307 305 303 302 300 299 296 292 287 280 272 264 257 250 246 243 242 242 241 241 240 240 240 239 238 237 235 235 235
326 325 323 321 321 319 318 317 316 315 313 311 309 307 305 303 302 299 297 296 293 290 286 282 276 268 261 254 249 246 243 242 242 241 241 241 241 242 241 240 238 237 236
327 326 324 324 322 321 319 318 317 316 315 313 311 309 306 303 300 298 295 292 289 286 282 279 275 270 264 257 252 247 244 242 241 241 242 242 242 243 243 243 242 241 238
328 327 326 325 324 323 321 321 320 318 317 315 314 311 309 305 301 298 294 290 287 284 280 275 271 268 264 259 254 249 245 242 241 240 241 242 242 243 243 244 244 244 242
329 328 328 327 326 325 324 323 323 322 321 319 318 316 314 311 307 302 296 292 287 283 278 274 269 265 262 259 255 250 247 243 241 239 239 240 241 242 243 243 244 244 244
331 330 329 329 328 328 327 326 326 326 326 325 324 322 320 317 314 310 304 297 291 285 279 274 269 264 260 257 253 250 247 245 242 240 239 239 239 240 241 242 242 243 243
332 331 331 330 330 329 329 329 330 331 330 329 328 325 323 320 317 313 308 303 297 290 283 276 271 265 259 255 252 249 247 245 243 242 241 240 240 240 241 241 241 241 241
333 332 332 331 331 332 333 334 335 335 334 332 331 329 326 323 320 316 312 307 301 295 288 280 273 267 262 256 252 248 247 246 244 243 243 242 242 243 243 243 241 240 239
334 333 333 333 334 336 338 339 339 338 337 335 334 332 330 327 324 320 316 311 305 299 292 284 276 269 264 258 253 249 246 245 244 243 243 243 243 245 244 244 242 239 237
335 334 335 336 338 340 341 341 340 339 338 337 336 334 333 331 329 325 321 317 312 305 298 290 281 272 265 260 255 250 246 244 243 242 242 242 243 243 243 244 241 237 234
336 337 338 340 342 343 343 342 341 340 340 339 338 337 336 335 334 331 328 324 319 313 305 296 287 277 268 261 255 250 246 243 241 240 240 240 240 239 240 241 237 234 231
338 340 342 344 345 345 345 344 343 342 341 340 340 340 339 339 338 336 333 329 325 320 313 303 293 282 272 263 256 250 246 242 239 238 238 237 237 236 236 236 233 230 228
341 343 345 346 347 347 346 346 345 344 343 343 342 342 341 340 338 336 334 330 325 321 317 310 298 286 275 265 258 251 246 241 237 235 235 234 234 233 232 231 229 226 221
343 346 348 349 349 348 348 348 347 346 346 346 345 344 344 342 340 337 335 331 326 321 315 308 300 288 277 267 259 252 245 240 236 233 231 231 230 229 228 228 227 225 220
346 348 350 350 351 350 350 350 349 349 348 348 347 347 346 344 342 340 336 332 327 322 315 306 296 286 275 266 258 252 245 239 234 231 228 227 227 226 225 225 224 224 222
348 349 351 351 352 353 353 352 352 351 351 350 350 349 348 347 345 343 339 335 331 325 318 306 293 280 270 261 255 251 245 238 233 230 227 225 224 223 222 222 222 222 222
349 351 351 352 353 354 355 355 355 354 354 354 353 352 351 350 349 347 344 341 337 332 324 310 291 275 263 255 250 248 245 238 232 228 226 224 222 221 220 220 221 221 220
350 352 353 353 354 355 357 357 357 357 357 357 356 356 355 354 353 352 351 348 346 342 334 320 297 274 259 250 245 244 244 238 231 227 225 223 221 219 219 219 220 220 219
352 353 354 355 355 356 358 359 360 0 -0 360 359 359 358 358 358 358 357 357 356 353 348 337 311 278 256 247 242 241 241 238 232 228 225 224 222 220 218 218 219 219 219
352 354 355 356 357 358 359 0 2 3 3 2 2 2 2 2 3 3 4 4 4 3 360 355 337 294 260 248 243 241 241 239 235 230 227 224 222 221 219 218 219 219 219
353 355 356 357 358 359 1 2 4 4 5 5 4 4 5 6 7 8 9 10 10 10 9 6 360 334 282 257 247 244 242 241 238 233 230 226 224 222 221 220 219 219 220
Height
5772 5760 5749 5737 5724 5711 5698 5685 5673 5661 5650 5641 5631 5623 5614 5606 5599 5593 5588 5586 5586 5587 5590 5595 5600 5605 5611 5617 5623 5629 5635 5641 5646 5652 5658 5665 5670 5676 5683 5689 5695 5701 5706
5758 5746 5734 5720 5707 5694 5680 5667 5655 5644 5633 5624 5615 5606 5598 5591 5583 5576 5570 5564 5562 5561 5563 5566 5572 5578 5585 5592 5599 5606 5613 5620 5626 5632 5639 5647 5654 5660 5666 5672 5679 5685 5691
5746 5733 5719 5706 5692 5678 5664 5651 5640 5630 5621 5611 5603 5595 5587 5578 5571 5564 5556 5549 5544 5541 5540 5541 5545 5551 5558 5566 5574 5581 5589 5598 5605 5611 5619 5627 5635 5641 5648 5656 5662 5669 5676
5732 5718 5704 5690 5676 5662 5649 5637 5627 5618 5609 5600 5592 5584 5576 5568 5560 5553 5546 5539 5532 5527 5524 5522 5523 5526 5532 5539 5548 5556 5565 5574 5583 5590 5597 5606 5614 5622 5630 5637 5645 5651 5659
5718 5704 5689 5674 5660 5647 5635 5625 5616 5607 5598 5589 5581 5573 5565 5557 5549 5542 5535 5529 5522 5516 5512 5509 5507 5508 5510 5516 5523 5531 5541 5550 5559 5568 5576 5584 5592 5601 5609 5619 5626 5633 5641
5704 5689 5674 5659 5646 5634 5624 5614 5605 5596 5586 5577 5568 5560 5552 5545 5537 5531 5525 5518 5512 5507 5502 5498 5496 5495 5495 5498 5502 5509 5517 5526 5535 5545 5554 5562 5570 5579 5588 5597 5606 5614 5623
5690 5675 5660 5646 5634 5623 5613 5603 5593 5584 5574 5564 5555 5546 5538 5531 5524 5518 5513 5507 5502 5497 5493 5489 5486 5484 5484 5485 5487 5491 5497 5504 5512 5522 5531 5540 5549 5557 5566 5575 5585 5594 5603
5676 5661 5647 5634 5623 5612 5602 5592 5581 5570 5560 5550 5540 5531 5523 5516 5510 5504 5499 5494 5490 5487 5483 5480 5477 5475 5474 5474 5475 5478 5481 5486 5493 5500 5509 5518 5527 5535 5544 5553 5562 5571 5582
5664 5649 5636 5624 5612 5601 5590 5579 5568 5557 5546 5536 5526 5517 5508 5501 5495 5489 5484 5479 5476 5473 5471 5469 5467 5465 5464 5464 5465 5466 5469 5473 5477 5483 5489 5497 5505 5513 5522 5531 5539 5549 5559
5652 5638 5625 5613 5601 5589 5578 5566 5554 5543 5532 5522 5512 5503 5495 5487 5480 5474 5469 5464 5461 5458 5457 5456 5454 5454 5453 5453 5454 5455 5457 5460 5464 5468 5473 5479 5486 5493 5501 5509 5518 5526 5537
5642 5628 5615 5602 5590 5578 5566 5554 5543 5532 5521 5511 5502 5493 5484 5476 5468 5461 5455 5450 5446 5443 5442 5441 5440 5440 5440 5441 5442 5444 5446 5448 5452 5455 5460 5465 5470 5476 5483 5489 5497 5505 5514
5633 5619 5606 5593 5580 5568 5556 5544 5533 5522 5512 5502 5492 5483 5474 5465 5457 5450 5443 5437 5433 5429 5426 5425 5425 5425 5426 5427 5429 5431 5434 5436 5440 5443 5448 5452 5457 5462 5467 5472 5479 5486 5494
5625 5611 5598 5585 5572 5560 5547 5536 5525 5514 5504 5494 5484 5474 5464 5455 5447 5439 5432 5425 5420 5415 5412 5410 5409 5409 5410 5412 5414 5417 5420 5423 5427 5431 5435 5439 5444 5448 5453 5457 5462 5469 5476
5618 5604 5591 5578 5565 5552 5540 5529 5518 5508 5497 5487 5476 5466 5456 5446 5437 5428 5420 5413 5407 5402 5398 5395 5393 5393 5394 5395 5398 5402 5406 5410 5413 5417 5422 5426 5430 5435 5439 5443 5448 5453 5460
5612 5598 5584 5571 5558 5546 5535 5524 5513 5502 5491 5480 5469 5458 5447 5437 5427 5418 5410 5402 5395 5389 5385 5381 5379 5377 5378 5379 5381 5385 5391 5395 5399 5403 5408 5413 5417 5421 5426 5430 5434 5440 5446
5605 5591 5577 5565 5553 5541 5530 5519 5507 5496 5484 5473 5462 5450 5439 5429 5419 5409 5401 5392 5385 5378 5372 5368 5365 5363 5362 5362 5364 5368 5374 5379 5384 5388 5393 5399 5404 5408 5413 5417 5422 5428 5433
5598 5585 5572 5560 5548 5537 5526 5514 5502 5490 5478 5466 5454 5443 5432 5422 5411 5402 5392 5384 5375 5368 5361 5356 5352 5349 5347 5347 5348 5351 5357 5362 5368 5373 5379 5384 5390 5395 5400 5406 5411 5416 5422
5593 5580 5568 5556 5544 5533 5521 5508 5496 5484 5472 5459 5448 5436 5426 5415 5404 5394 5384 5374 5365 5357 5350 5343 5338 5335 5333 5332 5333 5335 5340 5346 5352 5358 5364 5370 5376 5382 5388 5394 5400 5406 5412
5588 5575 5564 5552 5540 5529 5516 5504 5491 5478 5466 5453 5441 5430 5419 5408 5397 5385 5374 5363 5353 5344 5336 5329 5324 5320 5318 5318 5318 5320 5324 5330 5336 5342 5349 5355 5362 5369 5375 5382 5388 5395 5402
5582 5571 5560 5549 5537 5525 5513 5500 5487 5474 5461 5448 5436 5424 5412 5400 5388 5375 5362 5350 5339 5328 5318 5311 5306 5304 5303 5303 5304 5305 5310 5316 5321 5327 5334 5341 5348 5355 5362 5370 5377 5383 5390
5578 5567 5556 5545 5534 5522 5510 5497 5483 5470 5457 5444 5431 5418 5405 5392 5379 5365 5350 5335 5322 5310 5299 5292 5288 5287 5288 5289 5290 5292 5296 5302 5307 5313 5320 5326 5334 5342 5350 5357 5364 5371 5379
5575 5564 5553 5542 5531 5520 5508 5495 5481 5467 5454 5440 5427 5414 5400 5386 5371 5355 5339 5323 5307 5292 5281 5274 5271 5271 5273 5275 5277 5280 5283 5289 5295 5300 5306 5312 5320 5329 5337 5345 5353 5360 5368
5573 5562 5551 5540 5529 5517 5506 5493 5479 5466 5452 5438 5424 5411 5396 5381 5365 5348 5330 5313 5295 5280 5268 5261 5258 5258 5260 5263 5267 5270 5273 5278 5283 5288 5293 5300 5308 5317 5326 5334 5341 5349 5357
5571 5560 5549 5539 5528 5516 5504 5492 5478 5464 5451 5437 5423 5409 5395 5379 5362 5344 5325 5306 5288 5273 5261 5254 5250 5250 5252 5255 5258 5262 5265 5269 5273 5278 5283 5290 5297 5305 5314 5322 5330 5338 5346
5569 5559 5548 5537 5527 5515 5504 5491 5478 5465 5451 5437 5423 5409 5394 5378 5361 5342 5323 5304 5286 5270 5258 5251 5247 5246 5247 5249 5252 5255 5259 5262 5266 5270 5275 5281 5287 5295 5302 5311 5319 5327 5335
5567 5557 5546 5536 5526 5515 5503 5491 5478 5465 5452 5438 5424 5410 5395 5379 5363 5345 5326 5307 5290 5274 5260 5252 5247 5245 5245 5247 5249 5252 5255 5258 5260 5264 5267 5272 5278 5285 5292 5300 5308 5316 5324